Location: Asheville, NC
(35.6000°N, 82.5500°W)
Time: 17:10:21
(UTC-04:00)

Vanguard 1 Rocket - Pass Details

Date: 13 March 2018
Orbit: 653 x 4224 km, 34.3° (Epoch: 18 June)

Event Time Altitude Azimuth Distance (km) Brightness Sun altitude
Rises 00:48:47 0° 284° (WNW) 5,830 11.8 -55.3°
Reaches altitude 10° 00:51:59 10° 281° (W) 5,197 11.4 -55.5°
Enters shadow 00:59:51 39° 264° (W) 4,107 10.5 -56.1°
Maximum altitude 01:08:40 60° 207° (SSW) 3,995 - -56.6°
Drops below altitude 10° 01:33:56 10° 135° (SE) 7,393 - -57.3°
Sets 01:39:42 0° 132° (SE) 8,299 - -57.3°
